owner,sensor,date,latitude,longitude,vertical_datum,wind_speed,wind_to_direction,wind_speed_of_gust,qcFlag 
TABS,ioos:station:wmo:42047:1,2016-12-01T00:00:00Z,27.8966,-93.5973,4.0,9.221697241,30.56921936,11.64,'11111222,11111222,11111222' 
TABS,ioos:station:wmo:42047:1,2016-12-01T00:30:00Z,27.8966,-93.5973,4.0,8.867468635,35.26698204,10.93,'11111222,11111222,11111222' 
TABS,ioos:station:wmo:42047:1,2016-12-01T01:00:00Z,27.8966,-93.5973,4.0,8.57205343,29.64511538,11.35,'11111222,11111222,11111222' 
TABS,ioos:station:wmo:42047:1,2016-12-01T01:30:00Z,27.8966,-93.5973,4.0,8.790654128,35.46161643,11.03,'11111222,11111222,11111222' 
TABS,ioos:station:wmo:42047:1,2016-12-01T02:00:00Z,27.8966,-93.5973,4.0,8.475966022,31.58950397,10.41,'11111222,11111222,11111222' 
TABS,ioos:station:wmo:42047:1,2016-12-01T02:30:00Z,27.8966,-93.5973,4.0,8.782311769,39.36254867,11.2,'11111222,11111222,11111222' 
TABS,ioos:station:wmo:42047:1,2016-12-01T03:00:00Z,27.8966,-93.5973,4.0,8.222682044,38.33304001,10.96,'11111222,11111222,11111222' 
TABS,ioos:station:wmo:42047:1,2016-12-01T03:30:00Z,27.8966,-93.5973,4.0,8.268313008,40.68366688,10.19,'11111222,11111222,11111222' 
TABS,ioos:station:wmo:42047:1,2016-12-01T04:00:00Z,27.8966,-93.5973,4.0,7.718996049,52.20931562,9.87,'11111222,11111222,11111222' 
TABS,ioos:station:wmo:42047:1,2016-12-01T04:30:00Z,27.8966,-93.5973,4.0,7.754069899,46.88098168,10.08,'11111222,11111222,11111222' 
TABS,ioos:station:wmo:42047:1,2016-12-01T05:00:00Z,27.8966,-93.5973,4.0,7.544116913,52.81078671,10.0,'11111222,11111222,11111222' 
TABS,ioos:station:wmo:42047:1,2016-12-01T05:30:00Z,27.8966,-93.5973,4.0,7.521602223,47.1008399,9.2,'11111222,11111222,11111222' 
TABS,ioos:station:wmo:42047:1,2016-12-01T06:00:00Z,27.8966,-93.5973,4.0,7.414829735,40.24059131,9.53,'11111222,11111222,11111222' 
TABS,ioos:station:wmo:42047:1,2016-12-01T06:30:00Z,27.8966,-93.5973,4.0,6.811549016,42.02441737,9.18,'11111222,11111222,11111222' 
TABS,ioos:station:wmo:42047:1,2016-12-01T07:00:00Z,27.8966,-93.5973,4.0,7.223475618,51.97163626,8.88,'11111222,11111222,11111222' 
TABS,ioos:station:wmo:42047:1,2016-12-01T07:30:00Z,27.8966,-93.5973,4.0,7.629528164,54.87229207,9.57,'11111222,11111222,11111222' 
TABS,ioos:station:wmo:42047:1,2016-12-01T08:00:00Z,27.8966,-93.5973,4.0,7.864057477,44.0723178,10.79,'11111222,11111222,11111222' 
TABS,ioos:station:wmo:42047:1,2016-12-01T08:30:00Z,27.8966,-93.5973,4.0,8.110098643,49.75086921,10.31,'11111222,11111222,11111222' 
TABS,ioos:station:wmo:42047:1,2016-12-01T09:00:00Z,27.8966,-93.5973,4.0,7.887667589,58.42546217,10.66,'11111222,11111222,11111222' 
TABS,ioos:station:wmo:42047:1,2016-12-01T09:30:00Z,27.8966,-93.5973,4.0,8.305979774,50.61804755,10.16,'11111222,11111222,11111222' 
TABS,ioos:station:wmo:42047:1,2016-12-01T10:00:00Z,27.8966,-93.5973,4.0,8.024188432,57.93372052,9.52,'11111222,11111222,11111222' 
TABS,ioos:station:wmo:42047:1,2016-12-01T10:30:00Z,27.8966,-93.5973,4.0,8.09862334,56.32921213,10.16,'11111222,11111222,11111222' 
TABS,ioos:station:wmo:42047:1,2016-12-01T11:00:00Z,27.8966,-93.5973,4.0,8.631946478,62.69245996,10.79,'11111222,11111222,11111222' 
TABS,ioos:station:wmo:42047:1,2016-12-01T11:30:00Z,27.8966,-93.5973,4.0,8.636897591,61.35742012,10.83,'11111222,11111222,11111222' 
TABS,ioos:station:wmo:42047:1,2016-12-01T12:00:00Z,27.8966,-93.5973,4.0,8.522218021,70.03375106,11.35,'11111222,11111222,11111222' 
TABS,ioos:station:wmo:42047:1,2016-12-01T12:30:00Z,27.8966,-93.5973,4.0,8.846338226,65.34663288,10.85,'11111222,11111222,11111222' 
TABS,ioos:station:wmo:42047:1,2016-12-01T13:00:00Z,27.8966,-93.5973,4.0,8.494498219,66.33163468,11.02,'11111222,11111222,11111222' 
TABS,ioos:station:wmo:42047:1,2016-12-01T13:30:00Z,27.8966,-93.5973,4.0,8.725101719,75.05550676,10.93,'11111222,11111222,11111222' 
TABS,ioos:station:wmo:42047:1,2016-12-01T14:00:00Z,27.8966,-93.5973,4.0,8.968232825,66.75070991,11.86,'11111222,11111222,11111222' 
TABS,ioos:station:wmo:42047:1,2016-12-01T14:30:00Z,27.8966,-93.5973,4.0,9.146239664,66.06894878,12.03,'11111222,11111222,11111222' 
TABS,ioos:station:wmo:42047:1,2016-12-01T15:00:00Z,27.8966,-93.5973,4.0,9.354811596,75.57714489,11.87,'11111222,11111222,11111222' 
TABS,ioos:station:wmo:42047:1,2016-12-01T15:30:00Z,27.8966,-93.5973,4.0,8.148404752,73.67753504,11.59,'11111222,11111222,11111222' 
TABS,ioos:station:wmo:42047:1,2016-12-01T16:00:00Z,27.8966,-93.5973,4.0,8.394432679,80.12210043,10.28,'11111222,11111222,11111222' 
TABS,ioos:station:wmo:42047:1,2016-12-01T16:30:00Z,27.8966,-93.5973,4.0,8.307520689,79.94767512,10.11,'11111222,11111222,11111222' 
TABS,ioos:station:wmo:42047:1,2016-12-01T17:00:00Z,27.8966,-93.5973,4.0,9.044114108,85.81467274,10.81,'11111222,11111222,11111222' 
TABS,ioos:station:wmo:42047:1,2016-12-01T17:30:00Z,27.8966,-93.5973,4.0,8.82580308,87.92173689,10.52,'11111222,11111222,11111222' 
TABS,ioos:station:wmo:42047:1,2016-12-01T18:00:00Z,27.8966,-93.5973,4.0,8.676041724,95.2247321,10.41,'11111222,11111222,11111222' 
TABS,ioos:station:wmo:42047:1,2016-12-01T18:30:00Z,27.8966,-93.5973,4.0,7.619455361,97.16272852,9.68,'11111222,11111222,11111222' 
TABS,ioos:station:wmo:42047:1,2016-12-01T19:00:00Z,27.8966,-93.5973,4.0,8.150055215,90.21132418,10.21,'11111222,11111222,11111222' 
TABS,ioos:station:wmo:42047:1,2016-12-01T19:30:00Z,27.8966,-93.5973,4.0,7.150566411,90.72158676,10.06,'11111222,11111222,11111222' 
TABS,ioos:station:wmo:42047:1,2016-12-01T20:00:00Z,27.8966,-93.5973,4.0,6.911128707,94.48177528,8.56,'11111222,11111222,11111222' 
TABS,ioos:station:wmo:42047:1,2016-12-01T20:30:00Z,27.8966,-93.5973,4.0,7.322636137,93.36687371,9.31,'11111222,11111222,11111222' 
TABS,ioos:station:wmo:42047:1,2016-12-01T21:00:00Z,27.8966,-93.5973,4.0,7.779826476,97.68264704,9.05,'11111222,11111222,11111222' 
TABS,ioos:station:wmo:42047:1,2016-12-01T21:30:00Z,27.8966,-93.5973,4.0,8.377857721,102.4772742,9.98,'11111222,11111222,11111222' 
TABS,ioos:station:wmo:42047:1,2016-12-01T22:00:00Z,27.8966,-93.5973,4.0,7.884522814,109.3315753,10.23,'11111222,11111222,11111222' 
TABS,ioos:station:wmo:42047:1,2016-12-01T22:30:00Z,27.8966,-93.5973,4.0,8.553467133,105.8077623,10.35,'11111222,11111222,11111222' 
TABS,ioos:station:wmo:42047:1,2016-12-01T23:00:00Z,27.8966,-93.5973,4.0,8.063107341,105.7603258,9.59,'11111222,11111222,11111222' 
TABS,ioos:station:wmo:42047:1,2016-12-01T23:30:00Z,27.8966,-93.5973,4.0,8.093336766,114.0634859,9.59,'11111222,11111222,11111222' 
TABS,ioos:station:wmo:42047:1,2016-12-02T00:00:00Z,27.8966,-93.5973,4.0,7.811696359,105.9760041,9.63,'11111222,11111222,11111222' 
TABS,ioos:station:wmo:42047:1,2016-12-02T00:30:00Z,27.8966,-93.5973,4.0,7.257134421,103.3855727,8.62,'11111222,11111222,11111222' 
TABS,ioos:station:wmo:42047:1,2016-12-02T01:00:00Z,27.8966,-93.5973,4.0,7.772001029,106.2900758,9.85,'11111222,11111222,11111222' 
TABS,ioos:station:wmo:42047:1,2016-12-02T01:30:00Z,27.8966,-93.5973,4.0,8.012839696,99.62729565,9.74,'11111222,11111222,11111222' 
TABS,ioos:station:wmo:42047:1,2016-12-02T02:00:00Z,27.8966,-93.5973,4.0,8.083378007,113.5526295,10.16,'11111222,11111222,11111222' 
TABS,ioos:station:wmo:42047:1,2016-12-02T02:30:00Z,27.8966,-93.5973,4.0,8.633846188,112.6151282,10.52,'11111222,11111222,11111222' 
TABS,ioos:station:wmo:42047:1,2016-12-02T03:00:00Z,27.8966,-93.5973,4.0,8.300295175,116.4727986,10.35,'11111222,11111222,11111222' 
TABS,ioos:station:wmo:42047:1,2016-12-02T03:30:00Z,27.8966,-93.5973,4.0,8.353897294,112.8207142,10.33,'11111222,11111222,11111222' 
TABS,ioos:station:wmo:42047:1,2016-12-02T04:00:00Z,27.8966,-93.5973,4.0,8.514693183,113.9765185,10.67,'11111222,11111222,11111222' 
TABS,ioos:station:wmo:42047:1,2016-12-02T04:30:00Z,27.8966,-93.5973,4.0,7.915655374,113.8452642,9.89,'11111222,11111222,11111222' 
TABS,ioos:station:wmo:42047:1,2016-12-02T05:00:00Z,27.8966,-93.5973,4.0,7.839751272,109.0593368,9.46,'11111222,11111222,11111222' 
TABS,ioos:station:wmo:42047:1,2016-12-02T05:30:00Z,27.8966,-93.5973,4.0,8.228851682,116.2540237,9.84,'11111222,11111222,11111222' 
TABS,ioos:station:wmo:42047:1,2016-12-02T06:00:00Z,27.8966,-93.5973,4.0,8.653554183,114.7292601,10.86,'11111222,11111222,11111222' 
TABS,ioos:station:wmo:42047:1,2016-12-02T06:30:00Z,27.8966,-93.5973,4.0,7.74334553,130.7059549,9.59,'11111222,11111222,11111222' 
TABS,ioos:station:wmo:42047:1,2016-12-02T07:00:00Z,27.8966,-93.5973,4.0,8.012271838,127.3422028,9.98,'11111222,11111222,11111222' 
TABS,ioos:station:wmo:42047:1,2016-12-02T07:30:00Z,27.8966,-93.5973,4.0,8.346891637,126.0327568,9.69,'11111222,11111222,11111222' 
TABS,ioos:station:wmo:42047:1,2016-12-02T08:00:00Z,27.8966,-93.5973,4.0,8.589441193,119.5797583,10.08,'11111222,11111222,11111222' 
TABS,ioos:station:wmo:42047:1,2016-12-02T08:30:00Z,27.8966,-93.5973,4.0,8.448579762,123.0696998,9.89,'11111222,11111222,11111222' 
TABS,ioos:station:wmo:42047:1,2016-12-02T09:00:00Z,27.8966,-93.5973,4.0,8.99771082,120.1559471,10.87,'11111222,11111222,11111222' 
TABS,ioos:station:wmo:42047:1,2016-12-02T09:30:00Z,27.8966,-93.5973,4.0,8.756580383,116.8872922,10.19,'11111222,11111222,11111222' 
TABS,ioos:station:wmo:42047:1,2016-12-02T10:00:00Z,27.8966,-93.5973,4.0,8.756220646,114.7800737,10.85,'11111222,11111222,11111222' 
TABS,ioos:station:wmo:42047:1,2016-12-02T10:30:00Z,27.8966,-93.5973,4.0,8.542247948,117.1653425,10.41,'11111222,11111222,11111222' 
TABS,ioos:station:wmo:42047:1,2016-12-02T11:00:00Z,27.8966,-93.5973,4.0,8.643893799,109.4624711,10.39,'11111222,11111222,11111222' 
TABS,ioos:station:wmo:42047:1,2016-12-02T11:30:00Z,27.8966,-93.5973,4.0,8.576042211,109.9777728,9.85,'11111222,11111222,11111222' 
TABS,ioos:station:wmo:42047:1,2016-12-02T12:00:00Z,27.8966,-93.5973,4.0,9.061616854,112.8585581,11.51,'11111222,11111222,11111222' 
TABS,ioos:station:wmo:42047:1,2016-12-02T12:30:00Z,27.8966,-93.5973,4.0,9.590516149,105.9786043,11.02,'11111222,11111222,11111222' 
TABS,ioos:station:wmo:42047:1,2016-12-02T13:00:00Z,27.8966,-93.5973,4.0,9.68052168,102.5291993,11.9,'11111222,11111222,11111222' 
TABS,ioos:station:wmo:42047:1,2016-12-02T13:30:00Z,27.8966,-93.5973,4.0,10.05324326,104.340731,12.8,'11111222,11111222,11111222' 
TABS,ioos:station:wmo:42047:1,2016-12-02T14:00:00Z,27.8966,-93.5973,4.0,10.85697932,105.9312816,13.32,'11111222,11111222,11111222' 
TABS,ioos:station:wmo:42047:1,2016-12-02T14:30:00Z,27.8966,-93.5973,4.0,11.49647772,111.5889231,12.86,'11111222,11111222,11111222' 
TABS,ioos:station:wmo:42047:1,2016-12-02T15:00:00Z,27.8966,-93.5973,4.0,11.72060152,117.9865753,13.91,'11111222,11111222,11111222' 
TABS,ioos:station:wmo:42047:1,2016-12-02T15:30:00Z,27.8966,-93.5973,4.0,13.31899396,117.2580032,15.43,'11111222,11111222,11111222' 
TABS,ioos:station:wmo:42047:1,2016-12-02T16:00:00Z,27.8966,-93.5973,4.0,13.07471606,115.4090692,15.22,'11111222,11111222,11111222' 
TABS,ioos:station:wmo:42047:1,2016-12-02T16:30:00Z,27.8966,-93.5973,4.0,11.98970392,118.7671816,14.52,'11111222,11111222,11111222' 
TABS,ioos:station:wmo:42047:1,2016-12-02T17:00:00Z,27.8966,-93.5973,4.0,13.00775538,123.5560278,15.29,'11111222,11111222,11111222' 
TABS,ioos:station:wmo:42047:1,2016-12-02T17:30:00Z,27.8966,-93.5973,4.0,13.73848973,126.3864547,15.9,'11111222,11111222,11111222' 
TABS,ioos:station:wmo:42047:1,2016-12-02T18:00:00Z,27.8966,-93.5973,4.0,13.09242911,127.3341191,15.82,'11111222,11111222,11111222' 
TABS,ioos:station:wmo:42047:1,2016-12-02T18:30:00Z,27.8966,-93.5973,4.0,13.0150874,132.6027141,15.55,'11111222,11111222,11111222' 
TABS,ioos:station:wmo:42047:1,2016-12-02T19:00:00Z,27.8966,-93.5973,4.0,13.29448382,129.3534146,15.48,'11111222,11111222,11111222' 
TABS,ioos:station:wmo:42047:1,2016-12-02T19:30:00Z,27.8966,-93.5973,4.0,11.90543573,128.2467574,14.16,'11111222,11111222,11111222' 
TABS,ioos:station:wmo:42047:1,2016-12-02T20:00:00Z,27.8966,-93.5973,4.0,11.41597565,123.314569,13.06,'11111222,11111222,11111222' 
TABS,ioos:station:wmo:42047:1,2016-12-02T20:30:00Z,27.8966,-93.5973,4.0,11.80105504,124.8889448,14.57,'11111222,11111222,11111222' 
TABS,ioos:station:wmo:42047:1,2016-12-02T21:00:00Z,27.8966,-93.5973,4.0,15.15682355,127.4675129,17.83,'11111222,11111222,11111222' 
TABS,ioos:station:wmo:42047:1,2016-12-02T21:30:00Z,27.8966,-93.5973,4.0,13.72318476,128.9665994,16.39,'11111222,11111222,11111222' 
TABS,ioos:station:wmo:42047:1,2016-12-02T22:00:00Z,27.8966,-93.5973,4.0,13.11408784,125.8478286,15.48,'11111222,11111222,11111222' 
TABS,ioos:station:wmo:42047:1,2016-12-02T22:30:00Z,27.8966,-93.5973,4.0,12.77563306,130.0470698,15.57,'11111222,11111222,11111222' 
TABS,ioos:station:wmo:42047:1,2016-12-02T23:00:00Z,27.8966,-93.5973,4.0,13.72949016,129.59217,17.0,'11111222,11111222,11111222' 
TABS,ioos:station:wmo:42047:1,2016-12-02T23:30:00Z,27.8966,-93.5973,4.0,12.63641167,126.4077419,15.22,'11111222,11111222,11111222' 
TABS,ioos:station:wmo:42047:1,2016-12-03T00:00:00Z,27.8966,-93.5973,4.0,12.11082986,133.3274371,14.31,'11111222,11111222,11111222' 
TABS,ioos:station:wmo:42047:1,2016-12-03T00:30:00Z,27.8966,-93.5973,4.0,11.55676858,156.2743686,14.04,'11111222,11111222,11111222' 
TABS,ioos:station:wmo:42047:1,2016-12-03T01:00:00Z,27.8966,-93.5973,4.0,9.110960432,164.9878107,11.5,'11111222,11111222,11111222' 
TABS,ioos:station:wmo:42047:1,2016-12-03T01:30:00Z,27.8966,-93.5973,4.0,6.837792041,160.6113489,8.83,'11111222,11111222,11111222' 
TABS,ioos:station:wmo:42047:1,2016-12-03T02:00:00Z,27.8966,-93.5973,4.0,5.068589547,137.7190164,6.49,'11111222,11111222,11111222' 
TABS,ioos:station:wmo:42047:1,2016-12-03T02:30:00Z,27.8966,-93.5973,4.0,4.433384711,120.4986574,5.62,'11111222,11111222,11111222' 
TABS,ioos:station:wmo:42047:1,2016-12-03T03:00:00Z,27.8966,-93.5973,4.0,7.787810989,139.4788097,11.37,'11111222,11111222,11111222' 
TABS,ioos:station:wmo:42047:1,2016-12-03T03:30:00Z,27.8966,-93.5973,4.0,12.09193533,145.2062441,14.45,'11111222,11111222,11111222' 
TABS,ioos:station:wmo:42047:1,2016-12-03T04:00:00Z,27.8966,-93.5973,4.0,13.60807113,142.9451404,16.29,'11111222,11111222,11111222' 
TABS,ioos:station:wmo:42047:1,2016-12-03T04:30:00Z,27.8966,-93.5973,4.0,12.05965588,133.6227973,14.26,'11111222,11111222,11111222' 
TABS,ioos:station:wmo:42047:1,2016-12-03T05:00:00Z,27.8966,-93.5973,4.0,12.27896575,133.6144011,14.51,'11111222,11111222,11111222' 
TABS,ioos:station:wmo:42047:1,2016-12-03T05:30:00Z,27.8966,-93.5973,4.0,11.05948462,137.93223,13.29,'11111222,11111222,11111222' 
TABS,ioos:station:wmo:42047:1,2016-12-03T06:00:00Z,27.8966,-93.5973,4.0,11.40444212,141.944656,13.19,'11111222,11111222,11111222' 
TABS,ioos:station:wmo:42047:1,2016-12-03T06:30:00Z,27.8966,-93.5973,4.0,11.95684323,143.8108607,13.99,'11111222,11111222,11111222' 
TABS,ioos:station:wmo:42047:1,2016-12-03T07:00:00Z,27.8966,-93.5973,4.0,11.75431836,146.6617243,13.19,'11111222,11111222,11111222' 
TABS,ioos:station:wmo:42047:1,2016-12-03T07:30:00Z,27.8966,-93.5973,4.0,11.75314851,152.9773892,13.64,'11111222,11111222,11111222' 
TABS,ioos:station:wmo:42047:1,2016-12-03T08:00:00Z,27.8966,-93.5973,4.0,12.05292496,152.9037372,13.94,'11111222,11111222,11111222' 
TABS,ioos:station:wmo:42047:1,2016-12-03T08:30:00Z,27.8966,-93.5973,4.0,12.21795809,155.6378144,14.88,'11111222,11111222,11111222' 
TABS,ioos:station:wmo:42047:1,2016-12-03T09:00:00Z,27.8966,-93.5973,4.0,12.5334273,160.0327732,14.37,'11111222,11111222,11111222' 
TABS,ioos:station:wmo:42047:1,2016-12-03T09:30:00Z,27.8966,-93.5973,4.0,12.47574046,163.4681629,14.53,'11111222,11111222,11111222' 
TABS,ioos:station:wmo:42047:1,2016-12-03T10:00:00Z,27.8966,-93.5973,4.0,12.07050123,159.2830992,14.9,'11111222,11111222,11111222' 
TABS,ioos:station:wmo:42047:1,2016-12-03T10:30:00Z,27.8966,-93.5973,4.0,10.91169098,157.0774634,13.44,'11111222,11111222,11111222' 
TABS,ioos:station:wmo:42047:1,2016-12-03T11:00:00Z,27.8966,-93.5973,4.0,12.12783987,161.0424125,14.38,'11111222,11111222,11111222' 
TABS,ioos:station:wmo:42047:1,2016-12-03T11:30:00Z,27.8966,-93.5973,4.0,10.96697771,157.1995542,13.7,'11111222,11111222,11111222' 
TABS,ioos:station:wmo:42047:1,2016-12-03T12:00:00Z,27.8966,-93.5973,4.0,11.76332011,165.5269075,13.79,'11111222,11111222,11111222' 
TABS,ioos:station:wmo:42047:1,2016-12-03T12:30:00Z,27.8966,-93.5973,4.0,11.05179171,169.310517,14.21,'11111222,11111222,11111222' 
TABS,ioos:station:wmo:42047:1,2016-12-03T13:00:00Z,27.8966,-93.5973,4.0,11.28858273,169.7952615,13.89,'11111222,11111222,11111222' 
TABS,ioos:station:wmo:42047:1,2016-12-03T13:30:00Z,27.8966,-93.5973,4.0,11.29499889,166.2223637,13.84,'11111222,11111222,11111222' 
TABS,ioos:station:wmo:42047:1,2016-12-03T14:00:00Z,27.8966,-93.5973,4.0,10.51521279,166.8626813,12.89,'11111222,11111222,11111222' 
TABS,ioos:station:wmo:42047:1,2016-12-03T14:30:00Z,27.8966,-93.5973,4.0,10.25099507,168.6354971,12.42,'11111222,11111222,11111222' 
TABS,ioos:station:wmo:42047:1,2016-12-03T15:00:00Z,27.8966,-93.5973,4.0,11.61654424,170.2865442,13.81,'11111222,11111222,11111222' 
TABS,ioos:station:wmo:42047:1,2016-12-03T15:30:00Z,27.8966,-93.5973,4.0,10.12882027,173.8224499,13.5,'11111222,11111222,11111222' 
TABS,ioos:station:wmo:42047:1,2016-12-03T16:00:00Z,27.8966,-93.5973,4.0,11.71266836,174.0705931,14.4,'11111222,11111222,11111222' 
TABS,ioos:station:wmo:42047:1,2016-12-03T16:30:00Z,27.8966,-93.5973,4.0,11.67078832,170.7800373,14.14,'11111222,11111222,11111222' 
TABS,ioos:station:wmo:42047:1,2016-12-03T17:00:00Z,27.8966,-93.5973,4.0,11.68617987,167.7479636,13.97,'11111222,11111222,11111222' 
TABS,ioos:station:wmo:42047:1,2016-12-03T17:30:00Z,27.8966,-93.5973,4.0,11.25348835,167.1124761,13.64,'11111222,11111222,11111222' 
TABS,ioos:station:wmo:42047:1,2016-12-03T18:00:00Z,27.8966,-93.5973,4.0,10.62675868,170.467,12.97,'11111222,11111222,11111222' 
TABS,ioos:station:wmo:42047:1,2016-12-03T18:30:00Z,27.8966,-93.5973,4.0,10.09580111,173.9733954,11.7,'11111222,11111222,11111222' 
TABS,ioos:station:wmo:42047:1,2016-12-03T19:00:00Z,27.8966,-93.5973,4.0,9.593565552,176.9529013,11.18,'11111222,11111222,11111222' 
TABS,ioos:station:wmo:42047:1,2016-12-03T19:30:00Z,27.8966,-93.5973,4.0,8.793844438,178.3059527,10.38,'11111222,11111222,11111222' 
TABS,ioos:station:wmo:42047:1,2016-12-03T20:00:00Z,27.8966,-93.5973,4.0,8.070421303,177.0881777,11.4,'11111222,11111222,11111222' 
TABS,ioos:station:wmo:42047:1,2016-12-03T20:30:00Z,27.8966,-93.5973,4.0,8.839711534,176.17321,10.05,'11111222,11111222,11111222' 
TABS,ioos:station:wmo:42047:1,2016-12-03T21:00:00Z,27.8966,-93.5973,4.0,7.725393194,169.2575695,9.46,'11111222,11111222,11111222' 
TABS,ioos:station:wmo:42047:1,2016-12-03T21:30:00Z,27.8966,-93.5973,4.0,8.631338251,169.9922541,10.23,'11111222,11111222,11111222' 
TABS,ioos:station:wmo:42047:1,2016-12-03T22:00:00Z,27.8966,-93.5973,4.0,8.366319382,164.9673654,9.6,'11111222,11111222,11111222' 
TABS,ioos:station:wmo:42047:1,2016-12-03T22:30:00Z,27.8966,-93.5973,4.0,8.603464418,167.5147722,10.21,'11111222,11111222,11111222' 
TABS,ioos:station:wmo:42047:1,2016-12-03T23:00:00Z,27.8966,-93.5973,4.0,8.387067426,166.3450815,10.3,'11111222,11111222,11111222' 
TABS,ioos:station:wmo:42047:1,2016-12-03T23:30:00Z,27.8966,-93.5973,4.0,8.813518026,170.7944085,10.16,'11111222,11111222,11111222' 
TABS,ioos:station:wmo:42047:1,2016-12-04T00:00:00Z,27.8966,-93.5973,4.0,8.527655012,170.0739882,10.0,'11111222,11111222,11111222' 
TABS,ioos:station:wmo:42047:1,2016-12-04T00:30:00Z,27.8966,-93.5973,4.0,7.963096132,165.2310465,9.29,'11111222,11111222,11111222' 
TABS,ioos:station:wmo:42047:1,2016-12-04T01:00:00Z,27.8966,-93.5973,4.0,8.278000966,171.1751346,9.78,'11111222,11111222,11111222' 
TABS,ioos:station:wmo:42047:1,2016-12-04T01:30:00Z,27.8966,-93.5973,4.0,8.640908517,170.8104333,10.41,'11111222,11111222,11111222' 
TABS,ioos:station:wmo:42047:1,2016-12-04T02:00:00Z,27.8966,-93.5973,4.0,9.529769147,165.3515474,11.83,'11111222,11111222,11111222' 
TABS,ioos:station:wmo:42047:1,2016-12-04T02:30:00Z,27.8966,-93.5973,4.0,9.015680784,175.6746276,10.48,'11111222,11111222,11111222' 
TABS,ioos:station:wmo:42047:1,2016-12-04T03:00:00Z,27.8966,-93.5973,4.0,8.541252836,175.0973103,10.44,'11111222,11111222,11111222' 
TABS,ioos:station:wmo:42047:1,2016-12-04T03:30:00Z,27.8966,-93.5973,4.0,8.971493744,170.9578819,11.32,'11111222,11111222,11111222' 
TABS,ioos:station:wmo:42047:1,2016-12-04T04:00:00Z,27.8966,-93.5973,4.0,8.001862283,172.3156834,9.9,'11111222,11111222,11111222' 
TABS,ioos:station:wmo:42047:1,2016-12-04T04:30:00Z,27.8966,-93.5973,4.0,9.14000547,175.3563144,11.21,'11111222,11111222,11111222' 
TABS,ioos:station:wmo:42047:1,2016-12-04T05:00:00Z,27.8966,-93.5973,4.0,9.192306566,176.0078607,10.7,'11111222,11111222,11111222' 
TABS,ioos:station:wmo:42047:1,2016-12-04T05:30:00Z,27.8966,-93.5973,4.0,8.656910534,174.0327898,10.29,'11111222,11111222,11111222' 
TABS,ioos:station:wmo:42047:1,2016-12-04T06:00:00Z,27.8966,-93.5973,4.0,9.152715444,169.8689598,11.0,'11111222,11111222,11111222' 
TABS,ioos:station:wmo:42047:1,2016-12-04T06:30:00Z,27.8966,-93.5973,4.0,9.568280932,174.2419638,11.52,'11111222,11111222,11111222' 
TABS,ioos:station:wmo:42047:1,2016-12-04T07:00:00Z,27.8966,-93.5973,4.0,8.770518799,173.8476036,10.87,'11111222,11111222,11111222' 
TABS,ioos:station:wmo:42047:1,2016-12-04T07:30:00Z,27.8966,-93.5973,4.0,8.720464437,180.5915436,10.49,'11111222,11111222,11111222' 
TABS,ioos:station:wmo:42047:1,2016-12-04T08:00:00Z,27.8966,-93.5973,4.0,8.561314151,181.0041202,9.83,'11111222,11111222,11111222' 
TABS,ioos:station:wmo:42047:1,2016-12-04T08:30:00Z,27.8966,-93.5973,4.0,9.415104885,181.8870573,11.14,'11111222,11111222,11111222' 
TABS,ioos:station:wmo:42047:1,2016-12-04T09:00:00Z,27.8966,-93.5973,4.0,9.457240612,182.2423868,11.14,'11111222,11111222,11111222' 
TABS,ioos:station:wmo:42047:1,2016-12-04T09:30:00Z,27.8966,-93.5973,4.0,8.326565919,194.5370985,9.77,'11111222,11111222,11111222' 
TABS,ioos:station:wmo:42047:1,2016-12-04T10:00:00Z,27.8966,-93.5973,4.0,7.709760048,198.7641277,9.69,'11111222,11111222,11111222' 
TABS,ioos:station:wmo:42047:1,2016-12-04T10:30:00Z,27.8966,-93.5973,4.0,5.281145709,234.3236752,8.05,'11111222,11111222,11111222' 
TABS,ioos:station:wmo:42047:1,2016-12-04T11:00:00Z,27.8966,-93.5973,4.0,4.355881082,296.7414638,6.16,'11111222,11111222,11111222' 
TABS,ioos:station:wmo:42047:1,2016-12-04T11:30:00Z,27.8966,-93.5973,4.0,6.782403704,306.2446699,12.46,'11111222,11111222,11111222' 
TABS,ioos:station:wmo:42047:1,2016-12-04T12:00:00Z,27.8966,-93.5973,4.0,6.444470498,357.8655358,7.76,'11111222,11111222,11111222' 
TABS,ioos:station:wmo:42047:1,2016-12-04T12:30:00Z,27.8966,-93.5973,4.0,5.554277631,29.79578094,6.6,'11111222,11111222,11111222' 
TABS,ioos:station:wmo:42047:1,2016-12-04T13:00:00Z,27.8966,-93.5973,4.0,5.682904187,48.70942124,6.55,'11111222,11111222,11111222' 
TABS,ioos:station:wmo:42047:1,2016-12-04T13:30:00Z,27.8966,-93.5973,4.0,4.302278466,63.79193869,5.12,'11111222,11111222,11111222' 
TABS,ioos:station:wmo:42047:1,2016-12-04T14:00:00Z,27.8966,-93.5973,4.0,4.07844333,73.47530135,4.87,'11111222,11111222,11111222' 
TABS,ioos:station:wmo:42047:1,2016-12-04T14:30:00Z,27.8966,-93.5973,4.0,3.766284641,71.42035215,4.43,'11111222,11111222,11111222' 
TABS,ioos:station:wmo:42047:1,2016-12-04T15:00:00Z,27.8966,-93.5973,4.0,3.373336627,92.54899004,4.18,'11111222,11111222,11111222' 
TABS,ioos:station:wmo:42047:1,2016-12-04T15:30:00Z,27.8966,-93.5973,4.0,2.298368987,134.1189138,3.32,'11111222,11111222,11111222' 
TABS,ioos:station:wmo:42047:1,2016-12-04T16:00:00Z,27.8966,-93.5973,4.0,2.439200689,159.8566029,3.03,'11111222,11111222,11111222' 
TABS,ioos:station:wmo:42047:1,2016-12-04T16:30:00Z,27.8966,-93.5973,4.0,2.038872237,137.7833299,2.95,'11111222,11111222,11111222' 
TABS,ioos:station:wmo:42047:1,2016-12-04T17:00:00Z,27.8966,-93.5973,4.0,3.14,32.77879356,9.91,'11111222,11111222,11111222' 
TABS,ioos:station:wmo:42047:1,2016-12-04T17:30:00Z,27.8966,-93.5973,4.0,8.856466564,40.14487923,10.6,'11111222,11111222,11111222' 
TABS,ioos:station:wmo:42047:1,2016-12-04T18:00:00Z,27.8966,-93.5973,4.0,9.871463924,45.41010455,12.74,'11111222,11111222,11111222' 